| time (UTC) | temp F | wind direction | speed knots | gust knots | rain 1hr in | rain 24hr in | rain mn in | humidity % | barometer mb |
| 20260509161519 | 53 | 342 | 13.0 | 20.0 | 0.00 | 0.04 | 0.04 | 48 | 1008.7 |
| 20260509160016 | 53 | 344 | 14.8 | 19.1 | 0.00 | 0.04 | 0.04 | 50 | 1008.6 |
| 20260509154512 | 53 | 345 | 9.6 | 19.1 | 0.00 | 0.04 | 0.04 | 54 | 1008.3 |
| 20260509153009 | 52 | 336 | 13.0 | 19.1 | 0.00 | 0.04 | 0.04 | 53 | 1008.0 |
| 20260509151503 | 51 | 352 | 12.2 | 16.5 | 0.00 | 0.04 | 0.04 | 59 | 1008.0 |
| 20260509150101 | 51 | 349 | 12.2 | 18.2 | 0.00 | 0.04 | 0.04 | 64 | 1007.7 |
| 20260509144555 | 50 | 359 | 12.2 | 18.2 | 0.00 | 0.04 | 0.04 | 68 | 1007.5 |
| 20260509143050 | 50 | 360 | 10.4 | 17.4 | 0.00 | 0.04 | 0.04 | 74 | 1007.4 |
| 20260509141546 | 49 | 354 | 10.4 | 15.6 | 0.00 | 0.04 | 0.04 | 74 | 1007.2 |
| 20260509140041 | 49 | 340 | 11.3 | 14.8 | 0.00 | 0.04 | 0.04 | 75 | 1007.0 |
| 20260509134538 | 48 | 346 | 10.4 | 14.8 | 0.00 | 0.04 | 0.04 | 80 | 1006.8 |
| 20260509133036 | 47 | 350 | 9.6 | 14.8 | 0.00 | 0.04 | 0.04 | 83 | 1006.7 |
| 20260509131533 | 46 | 333 | 8.7 | 13.0 | 0.00 | 0.04 | 0.04 | 85 | 1006.5 |
| 20260509130035 | 45 | 319 | 11.3 | 14.8 | 0.00 | 0.04 | 0.04 | 86 | 1006.4 |
| 20260509124521 | 46 | 335 | 10.4 | 14.8 | 0.00 | 0.04 | 0.04 | 85 | 1006.0 |
| 20260509123019 | 45 | 332 | 11.3 | 16.5 | 0.00 | 0.04 | 0.04 | 86 | 1005.9 |
| 20260509121523 | 45 | 342 | 8.7 | 15.6 | 0.00 | 0.04 | 0.04 | 86 | 1005.8 |
| 20260509120013 | 45 | 354 | 9.6 | 15.6 | 0.00 | 0.04 | 0.04 | 86 | 1005.3 |
| 20260509114510 | 45 | 334 | 13.0 | 20.9 | 0.00 | 0.04 | 0.04 | 86 | 1004.8 |
| 20260509113007 | 46 | 350 | 11.3 | 17.4 | 0.00 | 0.04 | 0.04 | 86 | 1004.5 |
| 20260509111501 | 47 | 322 | 12.2 | 18.2 | 0.00 | 0.04 | 0.04 | 83 | 1004.2 |
| 20260509110107 | 48 | 1 | 10.4 | 14.8 | 0.00 | 0.04 | 0.04 | 83 | 1003.8 |
| 20260509104555 | 49 | 319 | 11.3 | 16.5 | 0.00 | 0.04 | 0.04 | 82 | 1003.6 |
| 20260509103101 | 50 | 308 | 9.6 | 18.2 | 0.00 | 0.04 | 0.04 | 81 | 1003.4 |
| 20260509101602 | 50 | 306 | 10.4 | 14.8 | 0.01 | 0.04 | 0.04 | 79 | 1003.2 |
| 20260509100051 | 50 | 319 | 7.0 | 12.2 | 0.04 | 0.04 | 0.04 | 79 | 1002.6 |
| 20260509094603 | 50 | 281 | 7.8 | 13.0 | 0.04 | 0.04 | 0.04 | 79 | 1002.6 |
| 20260509093050 | 49 | 262 | 8.7 | 13.0 | 0.04 | 0.04 | 0.04 | 81 | 1002.6 |
| 20260509091548 | 48 | 266 | 3.5 | 7.8 | 0.03 | 0.03 | 0.03 | 85 | 1002.8 |
| 20260509090057 | 48 | 281 | 2.6 | 5.2 | 0.00 | 0.00 | 0.00 | 83 | 1003.3 |
| 20260509084549 | 48 | 301 | 3.5 | 7.0 | 0.00 | 0.00 | 0.00 | 81 | 1003.0 |
| 20260509083053 | 48 | 319 | 3.5 | 9.6 | 0.00 | 0.00 | 0.00 | 79 | 1002.9 |
| 20260509081542 | 49 | 312 | 7.0 | 13.9 | 0.00 | 0.00 | 0.00 | 78 | 1002.8 |
| 20260509080040 | 50 | 338 | 9.6 | 16.5 | 0.00 | 0.00 | 0.00 | 76 | 1002.7 |
| 20260509074541 | 51 | 353 | 12.2 | 19.1 | 0.00 | 0.00 | 0.00 | 71 | 1002.2 |
| 20260509073035 | 52 | 354 | 12.2 | 20.0 | 0.00 | 0.00 | 0.00 | 62 | 1002.2 |
| 20260509071535 | 51 | 300 | 12.2 | 16.5 | 0.00 | 0.00 | 0.00 | 56 | 1001.6 |
| 20260509070026 | 50 | 331 | 11.3 | 16.5 | 0.00 | 0.00 | 0.00 | 55 | 1000.9 |
| 20260509064524 | 49 | 224 | 8.7 | 12.2 | 0.00 | 0.00 | 0.00 | 60 | 999.8 |
| 20260509063023 | 50 | 226 | 7.8 | 11.3 | 0.00 | 0.00 | 0.00 | 59 | 1000.0 |
| 20260509061522 | 50 | 228 | 9.6 | 13.0 | 0.00 | 0.00 | 0.00 | 58 | 1000.1 |
| 20260509060018 | 51 | 223 | 10.4 | 13.0 | 0.00 | 0.00 | 0.00 | 58 | 1000.2 |
| 20260509054515 | 50 | 231 | 8.7 | 12.2 | 0.00 | 0.00 | 0.00 | 58 | 1000.3 |
| 20260509053016 | 50 | 219 | 7.8 | 10.4 | 0.00 | 0.00 | 0.00 | 58 | 1000.3 |
| 20260509051510 | 50 | 228 | 7.8 | 12.2 | 0.00 | 0.00 | 0.00 | 58 | 1000.4 |
| 20260509050012 | 50 | 223 | 9.6 | 12.2 | 0.00 | 0.00 | 0.00 | 59 | 1000.6 |
| 20260509044506 | 49 | 212 | 8.7 | 10.4 | 0.00 | 0.00 | 0.00 | 61 | 1000.8 |
| 20260509043004 | 49 | 212 | 7.0 | 10.4 | 0.00 | 0.00 | 0.00 | 62 | 1001.1 |
| 20260509041502 | 49 | 208 | 7.0 | 8.7 | 0.00 | 0.00 | 0.00 | 59 | 1001.3 |
| 20260509040001 | 48 | 228 | 5.2 | 7.8 | 0.00 | 0.00 | 0.00 | 60 | 1001.6 |
| 20260509034503 | 48 | 241 | 5.2 | 7.8 | 0.00 | 0.00 | 0.00 | 61 | 1001.8 |
| 20260509033059 | 49 | 245 | 5.2 | 7.8 | 0.00 | 0.00 | 0.00 | 58 | 1002.0 |
| 20260509031602 | 49 | 235 | 5.2 | 7.8 | 0.00 | 0.00 | 0.00 | 56 | 1002.1 |
| 20260509030113 | 50 | 236 | 5.2 | 7.8 | 0.00 | 0.00 | 0.00 | 54 | 1002.3 |
| 20260509024602 | 54 | 236 | 5.2 | 7.8 | 0.00 | 0.00 | 0.00 | 46 | 1002.3 |
| 20260509023059 | 55 | 240 | 4.3 | 7.0 | 0.00 | 0.00 | 0.00 | 45 | 1002.3 |
| 20260509021558 | 57 | 243 | 5.2 | 7.8 | 0.00 | 0.00 | 0.00 | 42 | 1002.3 |
| 20260509020106 | 56 | 242 | 3.5 | 5.2 | 0.00 | 0.00 | 0.00 | 43 | 1002.2 |
| 20260509014557 | 60 | 280 | 4.3 | 7.0 | 0.00 | 0.00 | 0.00 | 37 | 1002.3 |
| 20260509013100 | 61 | 292 | 3.5 | 10.4 | 0.00 | 0.00 | 0.00 | 36 | 1002.2 |
| 20260509011558 | 62 | 304 | 5.2 | 10.4 | 0.00 | 0.00 | 0.00 | 35 | 1002.3 |
| 20260509010055 | 64 | 322 | 8.7 | 13.0 | 0.00 | 0.00 | 0.00 | 33 | 1002.1 |
| 20260509004600 | 65 | 302 | 9.6 | 14.8 | 0.00 | 0.00 | 0.00 | 32 | 1002.1 |
| 20260509003057 | 66 | 306 | 10.4 | 18.2 | 0.00 | 0.00 | 0.00 | 31 | 1002.2 |
| 20260509001554 | 67 | 314 | 13.9 | 18.2 | 0.00 | 0.00 | 0.00 | 31 | 1002.0 |
| 20260509000055 | 67 | 295 | 13.0 | 21.7 | 0.00 | 0.00 | 0.00 | 30 | 1002.0 |
| 20260508234553 | 68 | 304 | 13.9 | 21.7 | 0.00 | 0.00 | 0.00 | 29 | 1002.0 |
| 20260508233052 | 69 | 308 | 13.0 | 20.9 | 0.00 | 0.00 | 0.00 | 27 | 1002.0 |
| 20260508231551 | 69 | 299 | 16.5 | 23.5 | 0.00 | 0.00 | 0.00 | 26 | 1001.9 |
| 20260508230051 | 69 | 336 | 18.2 | 25.2 | 0.00 | 0.00 | 0.00 | 25 | 1001.9 |
| 20260508224620 | 69 | 321 | 16.5 | 23.5 | 0.00 | 0.00 | 0.00 | 26 | 1002.0 |
| 20260508223053 | 70 | 283 | 16.5 | 26.9 | 0.00 | 0.00 | 0.00 | 25 | 1001.9 |
| 20260508221550 | 70 | 340 | 17.4 | 22.6 | 0.00 | 0.00 | 0.00 | 24 | 1001.7 |
| 20260508220053 | 71 | 320 | 18.2 | 25.2 | 0.00 | 0.00 | 0.00 | 24 | 1001.8 |
| 20260508214551 | 71 | 316 | 19.1 | 26.9 | 0.00 | 0.00 | 0.00 | 24 | 1001.7 |
| 20260508213047 | 71 | 302 | 18.2 | 26.9 | 0.00 | 0.00 | 0.00 | 25 | 1001.7 |
| 20260508211552 | 71 | 329 | 13.0 | 25.2 | 0.00 | 0.00 | 0.00 | 28 | 1001.5 |
| 20260508210048 | 72 | 285 | 14.8 | 20.9 | 0.00 | 0.00 | 0.00 | 28 | 1001.5 |
| 20260508204546 | 71 | 293 | 11.3 | 23.5 | 0.00 | 0.00 | 0.00 | 29 | 1001.5 |
| 20260508203047 | 72 | 320 | 15.6 | 23.5 | 0.00 | 0.00 | 0.00 | 28 | 1001.5 |
| 20260508201545 | 72 | 276 | 15.6 | 26.9 | 0.00 | 0.00 | 0.00 | 27 | 1001.5 |
| 20260508200043 | 73 | 269 | 9.6 | 20.9 | 0.00 | 0.00 | 0.00 | 26 | 1001.6 |
| 20260508194542 | 72 | 317 | 13.9 | 20.9 | 0.00 | 0.00 | 0.00 | 26 | 1001.7 |
| 20260508193040 | 71 | 326 | 13.0 | 20.9 | 0.00 | 0.00 | 0.00 | 27 | 1001.9 |
| 20260508191546 | 71 | 340 | 16.5 | 26.1 | 0.00 | 0.00 | 0.00 | 27 | 1002.0 |
| 20260508190141 | 70 | 307 | 9.6 | 20.9 | 0.00 | 0.00 | 0.00 | 28 | 1002.0 |
| 20260508184539 | 72 | 323 | 18.2 | 25.2 | 0.00 | 0.00 | 0.00 | 27 | 1002.0 |
| 20260508183035 | 71 | 280 | 12.2 | 15.6 | 0.00 | 0.00 | 0.00 | 28 | 1002.3 |
| 20260508181535 | 70 | 266 | 9.6 | 18.2 | 0.00 | 0.00 | 0.00 | 27 | 1002.4 |
| 20260508180036 | 71 | 300 | 11.3 | 21.7 | 0.00 | 0.00 | 0.00 | 27 | 1002.6 |
| 20260508174530 | 68 | 279 | 11.3 | 15.6 | 0.00 | 0.00 | 0.00 | 29 | 1002.7 |
| 20260508173028 | 68 | 236 | 11.3 | 16.5 | 0.00 | 0.00 | 0.00 | 26 | 1002.9 |
| 20260508171528 | 69 | 268 | 11.3 | 16.5 | 0.00 | 0.00 | 0.00 | 26 | 1003.2 |
| 20260508170023 | 67 | 253 | 11.3 | 18.2 | 0.00 | 0.00 | 0.00 | 27 | 1003.5 |
| 20260508164521 | 66 | 263 | 10.4 | 18.2 | 0.00 | 0.00 | 0.00 | 28 | 1003.6 |
| 20260508163029 | 65 | 266 | 10.4 | 15.6 | 0.00 | 0.00 | 0.00 | 29 | 1003.7 |